STARLINK-35533 (66429 NORAD) Tracking and Keplerian Element Data

This shows tracking and keplerian element data for the satellite.

Feedback or suggestion? Click here.




ElementValue
Catalog66429
NameSTARLINK-35533
Epoch Orbit729
Epoch Day354.05985186
Epoch Year2025
RAAN5.7287
Inclination43.0018
Eccentricity0.0001008
Argument of Perigee251.9862
Mean Anonmoly108.0884
Mean Motion15.40716867
Decay Rate0.00028291
L11 66429U 25259H 25354.05985186 .00028291 00000+0 68163-3 0 9999
L22 66429 43.0018 5.7287 0001008 251.9862 108.0884 15.40716867 7298



Live tracking and technical data element details for STARLINK-35533 (NORAD 66429). STARLINK-35533 can be tracked NOW for your location showing map with azimuth and elevation plus other details from your city location.







IsCatalogInMostPopularTable: catalog: 66429, numindb: 9
Update: records affected: 1



GetName: 66429 STARLINK-35533

Hit Count: updated at: Wed, 15 Apr 2026 01:50:09 GMT